This is the latest recevied weather packets stored in our database for station/object VE1DX. If no packets are shown the sender has not sent any weather packets the latest 10 day(s).
| Time | Temp. | Humidity | Pressure | Rain* | Wind** | Luminosity | Snow |
|---|---|---|---|---|---|---|---|
| 1777759217 | 14.44° C | 46% | 1013.9 hPa | 0 mm | - | - | - |
| 1777758617 | 15° C | 46% | 1013.8 hPa | 0 mm | - | - | - |
| 1777757717 | 17.22° C | 44% | 1013.6 hPa | 0 mm | - | - | - |
| 1777757417 | 17.22° C | 42% | 1013.5 hPa | 0 mm | - | - | - |
| 1777757117 | 17.22° C | 41% | 1013.5 hPa | 0 mm | - | - | - |
| 1777756817 | 17.22° C | 43% | 1013.3 hPa | 0 mm | - | - | - |
| 1777756517 | 17.22° C | 43% | 1013.3 hPa | 0 mm | - | - | - |
| 1777756217 | 17.22° C | 45% | 1013.2 hPa | 0 mm | - | - | - |
| 1777755917 | 17.22° C | 44% | 1013.2 hPa | 0 mm | - | - | - |
| 1777754417 | 17.22° C | 44% | 1013.4 hPa | 0 mm | - | - | - |
| 1777753817 | 17.22° C | 46% | 1013.3 hPa | 0 mm | - | - | - |
| 1777753517 | 17.22° C | 45% | 1013.3 hPa | 0 mm | - | - | - |
| 1777753217 | 17.22° C | 47% | 1013.3 hPa | 0 mm | - | - | - |
| 1777752917 | 17.22° C | 49% | 1013.2 hPa | 0 mm | - | - | - |
| 1777752617 | 17.22° C | 50% | 1013.1 hPa | 0 mm | - | - | - |
| 1777752317 | 17.22° C | 50% | 1013.1 hPa | 0 mm | - | - | - |
| 1777752017 | 17.22° C | 50% | 1013 hPa | 0 mm | - | - | - |
| 1777751417 | 17.78° C | 30% | 1013.1 hPa | 0 mm | - | - | - |
| 1777751117 | 17.78° C | 32% | 1012.9 hPa | 0 mm | - | - | - |
| 1777750517 | 17.22° C | 32% | 1012.9 hPa | 0 mm | - | - | - |
| 1777750217 | 17.78° C | 31% | 1012.9 hPa | 0 mm | - | - | - |
| 1777749617 | 16.67° C | 33% | 1012.5 hPa | 0 mm | - | - | - |
| 1777749317 | 16.67° C | 34% | 1012.5 hPa | 0 mm | - | - | - |
| 1777749017 | 16.67° C | 32% | 1012.4 hPa | 0 mm | - | - | - |
| 1777748718 | 16.67° C | 32% | 1012.4 hPa | 0 mm | - | - | - |
* Rain latest hour (hover to see other rain measurements)
** Current wind speed in m/s (hover to see current wind gust speed)